| time (UTC) | temp F | wind direction | speed MPH | gust MPH | rain 1hr in | rain 24hr in | rain mn in | humidity % | barometer mb |
| 20260902000121 | 76 | 113 | 0.0 | 0.0 | 0.00 | 0.33 | 0.33 | 99 | 1013.1 |
| 20260901235121 | 76 | 148 | 1.0 | 4.0 | 0.00 | 0.33 | 0.33 | 99 | 1013.0 |
| 20260901234121 | 76 | 11 | 1.0 | 4.0 | 0.00 | 0.33 | 0.33 | 99 | 1012.8 |
| 20260901233122 | 77 | 138 | 2.0 | 4.0 | 0.00 | 0.33 | 0.33 | 99 | 1013.1 |
| 20260901232122 | 77 | 126 | 0.0 | 3.0 | 0.00 | 0.33 | 0.33 | 99 | 1012.9 |
| 20260901231142 | 77 | 101 | 2.0 | 4.0 | 0.00 | 0.33 | 0.33 | 99 | 1012.7 |
| 20260901230121 | 78 | 90 | 0.0 | 2.0 | 0.00 | 0.33 | 0.33 | 98 | 1012.7 |
| 20260901225126 | 78 | 113 | 0.0 | 3.0 | 0.00 | 0.33 | 0.33 | 98 | 1012.4 |
| 20260901224121 | 78 | 93 | 1.0 | 3.0 | 0.00 | 0.33 | 0.33 | 98 | 1012.2 |
| 20260901223121 | 79 | 115 | 1.0 | 3.0 | 0.00 | 0.33 | 0.33 | 97 | 1012.4 |
| 20260901222122 | 79 | 114 | 1.0 | 4.0 | 0.00 | 0.33 | 0.33 | 96 | 1012.2 |
| 20260901221121 | 81 | 68 | 0.0 | 5.0 | 0.00 | 0.33 | 0.33 | 92 | 1012.2 |
| 20260901220122 | 81 | 74 | 0.0 | 3.0 | 0.00 | 0.33 | 0.33 | 92 | 1012.2 |
| 20260901215121 | 81 | 120 | 1.0 | 5.0 | 0.00 | 0.33 | 0.33 | 92 | 1012.2 |
| 20260901214121 | 80 | 100 | 2.0 | 5.0 | 0.00 | 0.33 | 0.33 | 93 | 1012.2 |
| 20260901213143 | 80 | 101 | 2.0 | 5.0 | 0.00 | 0.33 | 0.33 | 93 | 1012.2 |
| 20260901212122 | 81 | 113 | 0.0 | 0.0 | 0.00 | 0.33 | 0.33 | 93 | 1012.4 |
| 20260901211122 | 81 | 103 | 2.0 | 5.0 | 0.00 | 0.33 | 0.33 | 93 | 1012.2 |
| 20260901210122 | 80 | 103 | 1.0 | 4.0 | 0.00 | 0.33 | 0.33 | 93 | 1012.2 |
| 20260901205127 | 82 | 137 | 1.0 | 3.0 | 0.00 | 0.33 | 0.33 | 91 | 1012.4 |
| 20260901204122 | 81 | 130 | 1.0 | 3.0 | 0.00 | 0.33 | 0.33 | 93 | 1012.4 |
| 20260901203122 | 81 | 124 | 1.0 | 4.0 | 0.00 | 0.33 | 0.33 | 93 | 1012.2 |
| 20260901202122 | 83 | 105 | 1.0 | 4.0 | 0.00 | 0.33 | 0.33 | 91 | 1012.2 |
| 20260901201122 | 83 | 254 | 1.0 | 3.0 | 0.00 | 0.33 | 0.33 | 91 | 1012.1 |
| 20260901200125 | 82 | 167 | 2.0 | 3.0 | 0.00 | 0.33 | 0.33 | 90 | 1012.1 |
| 20260901195122 | 83 | 140 | 3.0 | 5.0 | 0.00 | 0.33 | 0.33 | 91 | 1012.1 |
| 20260901194143 | 82 | 93 | 2.0 | 4.0 | 0.00 | 0.33 | 0.33 | 91 | 1012.4 |
| 20260901193122 | 81 | 112 | 2.0 | 4.0 | 0.00 | 0.33 | 0.33 | 94 | 1012.4 |
| 20260901192122 | 80 | 90 | 1.0 | 3.0 | 0.00 | 0.33 | 0.33 | 96 | 1012.5 |
| 20260901191122 | 80 | 113 | 0.0 | 2.0 | 0.00 | 0.33 | 0.33 | 97 | 1012.5 |
| 20260901190122 | 80 | 134 | 1.0 | 3.0 | 0.00 | 0.33 | 0.33 | 94 | 1012.5 |
| 20260901185148 | 80 | 127 | 2.0 | 4.0 | 0.00 | 0.33 | 0.33 | 97 | 1012.5 |
| 20260901184122 | 79 | 240 | 2.0 | 5.0 | 0.00 | 0.33 | 0.33 | 99 | 1012.5 |
| 20260901183122 | 78 | 174 | 2.0 | 4.0 | 0.01 | 0.33 | 0.33 | 99 | 1012.6 |
| 20260901182126 | 77 | 156 | 2.0 | 3.0 | 0.01 | 0.33 | 0.33 | 99 | 1012.7 |
| 20260901181123 | 77 | 142 | 2.0 | 4.0 | 0.01 | 0.33 | 0.33 | 99 | 1012.7 |
| 20260901180123 | 76 | 229 | 2.0 | 4.0 | 0.01 | 0.33 | 0.33 | 99 | 1012.7 |
| 20260901175125 | 75 | 167 | 3.0 | 6.0 | 0.01 | 0.33 | 0.33 | 99 | 1012.2 |
| 20260901174123 | 75 | 123 | 2.0 | 3.0 | 0.01 | 0.33 | 0.33 | 99 | 1012.2 |
| 20260901172142 | 75 | 192 | 1.0 | 4.0 | 0.00 | 0.32 | 0.32 | 99 | 1013.1 |
| 20260901171121 | 76 | 126 | 1.0 | 3.0 | 0.00 | 0.32 | 0.32 | 99 | 1013.2 |
| 20260901170122 | 76 | 188 | 2.0 | 3.0 | 0.00 | 0.32 | 0.32 | 99 | 1013.2 |
| 20260901165122 | 75 | 107 | 1.0 | 3.0 | 0.01 | 0.32 | 0.32 | 99 | 1013.2 |
| 20260901164123 | 75 | 99 | 2.0 | 5.0 | 0.03 | 0.32 | 0.32 | 99 | 1012.9 |
| 20260901163144 | 75 | 236 | 2.0 | 4.0 | 0.04 | 0.32 | 0.32 | 99 | 1013.2 |
| 20260901162122 | 76 | 229 | 2.0 | 4.0 | 0.05 | 0.32 | 0.32 | 99 | 1013.4 |
| 20260901161145 | 76 | 203 | 0.0 | 0.0 | 0.06 | 0.32 | 0.32 | 99 | 1014.0 |
| 20260901160124 | 75 | 180 | 0.0 | 0.0 | 0.06 | 0.32 | 0.32 | 99 | 1014.0 |
| 20260901155122 | 75 | 203 | 0.0 | 0.0 | 0.05 | 0.31 | 0.31 | 99 | 1014.4 |
| 20260901154121 | 75 | 248 | 0.0 | 0.0 | 0.05 | 0.29 | 0.29 | 99 | 1014.4 |
| 20260901153121 | 76 | 158 | 0.0 | 0.0 | 0.04 | 0.28 | 0.28 | 99 | 1014.2 |
| 20260901152121 | 76 | 113 | 0.0 | 0.0 | 0.03 | 0.27 | 0.27 | 99 | 1014.2 |
| 20260901151121 | 75 | 158 | 0.0 | 0.0 | 0.02 | 0.26 | 0.26 | 99 | 1014.4 |
| 20260901150124 | 75 | 90 | 0.0 | 0.0 | 0.02 | 0.26 | 0.26 | 99 | 1014.4 |
| 20260901145124 | 77 | 113 | 0.0 | 0.0 | 0.02 | 0.26 | 0.26 | 99 | 1014.6 |
| 20260901144142 | 77 | 113 | 0.0 | 0.0 | 0.00 | 0.24 | 0.24 | 99 | 1014.2 |
| 20260901143124 | 76 | 225 | 0.0 | 0.0 | 0.00 | 0.24 | 0.24 | 99 | 1014.1 |
| 20260901142121 | 76 | 113 | 0.0 | 0.0 | 0.00 | 0.24 | 0.24 | 99 | 1014.0 |
| 20260901141122 | 76 | 225 | 0.0 | 0.0 | 0.00 | 0.24 | 0.24 | 99 | 1014.1 |
| 20260901140121 | 76 | 113 | 0.0 | 0.0 | 0.00 | 0.24 | 0.24 | 99 | 1014.1 |
| 20260901135121 | 75 | 270 | 0.0 | 0.0 | 0.00 | 0.24 | 0.24 | 99 | 1014.2 |
| 20260901134121 | 75 | 135 | 0.0 | 0.0 | 0.00 | 0.24 | 0.24 | 99 | 1014.0 |
| 20260901133145 | 75 | 225 | 0.0 | 0.0 | 0.00 | 0.24 | 0.24 | 99 | 1014.1 |
| 20260901132130 | 75 | 270 | 0.0 | 0.0 | 0.00 | 0.24 | 0.24 | 99 | 1014.0 |
| 20260901132122 | 75 | 248 | 0.0 | 0.0 | 0.00 | 0.24 | 0.24 | 99 | 1014.0 |
| 20260901131145 | 74 | 113 | 0.0 | 0.0 | 0.00 | 0.24 | 0.24 | 99 | 1014.0 |
| 20260901130123 | 74 | 158 | 0.0 | 0.0 | 0.00 | 0.24 | 0.24 | 99 | 1014.0 |
| 20260901125124 | 74 | 104 | 1.0 | 4.0 | 0.00 | 0.24 | 0.24 | 99 | 1013.9 |
| 20260901124142 | 74 | 105 | 2.0 | 3.0 | 0.00 | 0.24 | 0.24 | 99 | 1013.9 |
| 20260901123122 | 73 | 102 | 1.0 | 3.0 | 0.00 | 0.24 | 0.24 | 99 | 1014.0 |
| 20260901122126 | 72 | 151 | 1.0 | 2.0 | 0.00 | 0.24 | 0.24 | 99 | 1014.1 |
| 20260901121122 | 72 | 107 | 1.0 | 3.0 | 0.00 | 0.24 | 0.24 | 99 | 1014.4 |
| 20260901120122 | 72 | 101 | 0.0 | 2.0 | 0.00 | 0.24 | 0.24 | 99 | 1014.4 |
| 20260901115122 | 71 | 202 | 0.0 | 2.0 | 0.00 | 0.24 | 0.24 | 99 | 1014.2 |
| 20260901114121 | 71 | 114 | 1.0 | 2.0 | 0.00 | 0.24 | 0.24 | 99 | 1014.4 |
| 20260901113121 | 71 | 102 | 1.0 | 2.0 | 0.00 | 0.24 | 0.24 | 99 | 1014.2 |
| 20260901112121 | 71 | 110 | 1.0 | 3.0 | 0.00 | 0.24 | 0.24 | 99 | 1014.5 |
| 20260901111121 | 70 | 110 | 2.0 | 3.0 | 0.00 | 0.24 | 0.24 | 99 | 1014.6 |
| 20260901110123 | 70 | 86 | 0.0 | 2.0 | 0.00 | 0.24 | 0.24 | 99 | 1014.6 |
| 20260901105126 | 70 | 43 | 1.0 | 2.0 | 0.00 | 0.24 | 0.24 | 99 | 1014.5 |
| 20260901104121 | 70 | 99 | 1.0 | 2.0 | 0.00 | 0.24 | 0.24 | 99 | 1014.2 |
| 20260901103121 | 70 | 124 | 1.0 | 2.0 | 0.00 | 0.24 | 0.24 | 99 | 1014.1 |
| 20260901102123 | 70 | 113 | 0.0 | 0.0 | 0.00 | 0.24 | 0.24 | 99 | 1014.2 |
| 20260901101121 | 70 | 180 | 0.0 | 0.0 | 0.00 | 0.24 | 0.24 | 99 | 1014.1 |
| 20260901100122 | 70 | 225 | 0.0 | 0.0 | 0.00 | 0.24 | 0.24 | 99 | 1014.1 |
| 20260901095147 | 70 | 92 | 0.0 | 2.0 | 0.00 | 0.24 | 0.24 | 99 | 1013.9 |
| 20260901094121 | 70 | 90 | 1.0 | 3.0 | 0.00 | 0.24 | 0.24 | 99 | 1014.1 |
| 20260901093125 | 70 | 100 | 0.0 | 2.0 | 0.00 | 0.24 | 0.24 | 99 | 1014.2 |
| 20260901092121 | 70 | 118 | 0.0 | 3.0 | 0.01 | 0.24 | 0.24 | 99 | 1014.4 |
| 20260901091122 | 70 | 270 | 0.0 | 0.0 | 0.03 | 0.24 | 0.24 | 99 | 1014.4 |
| 20260901090145 | 70 | 135 | 0.0 | 0.0 | 0.03 | 0.24 | 0.24 | 99 | 1014.4 |
| 20260901085122 | 70 | 113 | 0.0 | 0.0 | 0.04 | 0.24 | 0.24 | 99 | 1014.4 |
| 20260901084122 | 70 | 68 | 0.0 | 0.0 | 0.04 | 0.24 | 0.24 | 99 | 1014.4 |
| 20260901083122 | 70 | 135 | 0.0 | 0.0 | 0.04 | 0.24 | 0.24 | 99 | 1014.6 |
| 20260901082145 | 70 | 113 | 0.0 | 0.0 | 0.03 | 0.23 | 0.23 | 99 | 1014.7 |
| 20260901081123 | 70 | 45 | 0.0 | 0.0 | 0.01 | 0.21 | 0.21 | 99 | 1014.8 |
| 20260901080144 | 70 | 113 | 0.0 | 0.0 | 0.04 | 0.21 | 0.21 | 99 | 1014.8 |
| 20260901075122 | 70 | 90 | 0.0 | 1.0 | 0.05 | 0.20 | 0.20 | 99 | 1014.8 |
| 20260901074126 | 70 | 98 | 1.0 | 2.0 | 0.07 | 0.20 | 0.20 | 99 | 1014.6 |
| 20260901073121 | 70 | 152 | 1.0 | 2.0 | 0.07 | 0.20 | 0.20 | 99 | 1014.7 |
| 20260901072121 | 70 | 99 | 2.0 | 3.0 | 0.07 | 0.20 | 0.20 | 99 | 1014.8 |
| 20260901071121 | 70 | 94 | 0.0 | 2.0 | 0.07 | 0.20 | 0.20 | 99 | 1014.9 |
| 20260901070143 | 70 | 90 | 1.0 | 2.0 | 0.04 | 0.17 | 0.17 | 99 | 1014.9 |
| 20260901065121 | 70 | 194 | 1.0 | 2.0 | 0.03 | 0.15 | 0.15 | 99 | 1015.0 |
| 20260901064126 | 70 | 242 | 1.0 | 2.0 | 0.07 | 0.13 | 0.13 | 99 | 1015.0 |
| 20260901063122 | 70 | 146 | 1.0 | 2.0 | 0.07 | 0.13 | 0.13 | 99 | 1015.1 |
| 20260901062121 | 70 | 225 | 1.0 | 4.0 | 0.11 | 0.13 | 0.13 | 99 | 1015.4 |
| 20260901061121 | 70 | 157 | 1.0 | 2.0 | 0.13 | 0.13 | 0.13 | 99 | 1015.4 |
| 20260901060142 | 70 | 126 | 0.0 | 2.0 | 0.13 | 0.13 | 0.13 | 99 | 1015.4 |
| 20260901055142 | 70 | 234 | 0.0 | 2.0 | 0.12 | 0.12 | 0.12 | 99 | 1015.6 |
| 20260901054121 | 70 | 220 | 0.0 | 2.0 | 0.06 | 0.06 | 0.06 | 99 | 1015.6 |
| 20260901053121 | 71 | 180 | 0.0 | 2.0 | 0.06 | 0.06 | 0.06 | 99 | 1015.7 |
| 20260901052125 | 71 | 207 | 0.0 | 2.0 | 0.03 | 0.03 | 0.03 | 99 | 1015.9 |
| 20260901051122 | 71 | 200 | 0.0 | 2.0 | 0.00 | 0.00 | 0.00 | 99 | 1015.8 |
| 20260901050122 | 71 | 166 | 2.0 | 3.0 | 0.00 | 0.00 | 0.00 | 99 | 1015.8 |
| 20260901045123 | 72 | 154 | 1.0 | 3.0 | 0.00 | 0.00 | 0.00 | 98 | 1015.9 |
| 20260901044122 | 72 | 231 | 2.0 | 5.0 | 0.00 | 0.00 | 0.00 | 97 | 1016.0 |
| 20260901043143 | 72 | 228 | 2.0 | 4.0 | 0.00 | 0.00 | 0.00 | 96 | 1015.9 |
| 20260901042122 | 72 | 214 | 2.0 | 4.0 | 0.00 | 0.00 | 0.00 | 95 | 1015.9 |
| 20260901041121 | 72 | 246 | 2.0 | 4.0 | 0.00 | 0.00 | 0.00 | 95 | 1016.0 |
| 20260901040123 | 72 | 275 | 3.0 | 5.0 | 0.00 | 0.00 | 0.00 | 95 | 1016.0 |
| 20260901035122 | 72 | 193 | 2.0 | 3.0 | 0.00 | 0.00 | 0.00 | 95 | 1015.9 |
| 20260901034123 | 72 | 227 | 2.0 | 3.0 | 0.00 | 0.00 | 0.00 | 95 | 1016.1 |
| 20260901033121 | 72 | 217 | 1.0 | 3.0 | 0.00 | 0.00 | 0.00 | 95 | 1016.2 |
| 20260901032122 | 72 | 194 | 2.0 | 4.0 | 0.00 | 0.00 | 0.00 | 95 | 1016.1 |
| 20260901031121 | 72 | 175 | 2.0 | 3.0 | 0.00 | 0.00 | 0.00 | 95 | 1016.4 |
| 20260901030122 | 72 | 186 | 2.0 | 3.0 | 0.00 | 0.00 | 0.00 | 95 | 1016.6 |
| 20260901025121 | 72 | 225 | 1.0 | 2.0 | 0.00 | 0.00 | 0.00 | 95 | 1016.6 |
| 20260901024122 | 72 | 187 | 2.0 | 4.0 | 0.00 | 0.00 | 0.00 | 96 | 1016.6 |
| 20260901023122 | 72 | 164 | 1.0 | 3.0 | 0.00 | 0.00 | 0.00 | 97 | 1016.6 |
| 20260901022122 | 72 | 156 | 2.0 | 4.0 | 0.00 | 0.00 | 0.00 | 97 | 1016.7 |
| 20260901021121 | 72 | 162 | 1.0 | 3.0 | 0.00 | 0.00 | 0.00 | 98 | 1016.7 |
| 20260901020123 | 72 | 199 | 1.0 | 3.0 | 0.00 | 0.01 | 0.00 | 98 | 1016.7 |
| 20260901015122 | 72 | 200 | 2.0 | 3.0 | 0.00 | 0.01 | 0.00 | 98 | 1016.8 |
| 20260901014122 | 72 | 192 | 1.0 | 3.0 | 0.00 | 0.01 | 0.00 | 98 | 1016.8 |
| 20260901013142 | 72 | 234 | 1.0 | 3.0 | 0.00 | 0.01 | 0.00 | 98 | 1016.9 |
| 20260901012123 | 72 | 174 | 1.0 | 3.0 | 0.00 | 0.01 | 0.00 | 97 | 1016.8 |
| 20260901011122 | 72 | 193 | 2.0 | 4.0 | 0.00 | 0.01 | 0.00 | 95 | 1016.7 |
| 20260901010123 | 72 | 186 | 2.0 | 4.0 | 0.00 | 0.01 | 0.00 | 93 | 1016.7 |
| 20260901005142 | 73 | 199 | 1.0 | 3.0 | 0.00 | 0.01 | 0.00 | 92 | 1016.7 |
| 20260901004122 | 73 | 179 | 2.0 | 4.0 | 0.00 | 0.01 | 0.00 | 91 | 1016.6 |
| 20260901003122 | 73 | 222 | 1.0 | 4.0 | 0.00 | 0.01 | 0.00 | 91 | 1016.6 |
| 20260901002121 | 73 | 151 | 2.0 | 4.0 | 0.00 | 0.01 | 0.00 | 91 | 1016.6 |
| 20260901001122 | 73 | 152 | 2.0 | 4.0 | 0.00 | 0.01 | 0.00 | 89 | 1016.5 |